Weather Roundup
Issued by NWS Chicago, IL

Home | Current Version | Previous Version | Graphics & Text | Print | Product List | Glossary On
Versions: 1 2 3 4 5 6 7 8 9 10 11 12 13 14 15 16 17 18 19 20 21 22 23 24 25 26 27 28 29 30 31 32 33 34 35 36 37 38 39 40 41 42 43 44 45 46 47 48 49 50
000
NZUS59 KLOT 202103
HRRLOT

CHICAGO AREA WEATHER ROUNDUP
NATIONAL WEATHER SERVICE CHICAGO/ROMEOVILLE IL
400 PM CDT SUN AUG 20 2017

NOTE: "FAIR" INDICATES FEW OR NO CLOUDS BELOW 12,000 FEET WITH NO
SIGNIFICANT WEATHER AND/OR OBSTRUCTIONS TO VISIBILITY.

* THESE STATIONS ARE NOT UNDER NWS QUALITY CONTROL. THEY ALSO MAY NOT
  REPORT WEATHER SUCH AS PRECIPITATION OR FOG.

ILZ005-006-012>014-019>023-202200-
NORTHEAST ILLINOIS

CITY           SKY/WX    TMP DP  RH WIND       PRES   REMARKS
OHARE          CLOUDY    86  66  51 SW9       30.00S HX  88
MIDWAY         CLOUDY    85  69  58 SW12G21   30.00F HX  89
AURORA         CLOUDY    81  71  71 S5        30.02F HX  85
LANSING*       CLOUDY    83  66  56 SW8       30.02F HX  86
JOLIET*        CLOUDY    84  73  70 S3        30.02S HX  90
WAUKEGAN       CLOUDY    80  67  64 SE8       30.00F HX  82
DUPAGE AIRPORT CLOUDY    83  71  67 SW8       30.01S HX  87
WHEELING       CLOUDY    86  68  54 VRB5      30.01F HX  89
MORRIS*        CLOUDY    81  71  70 CALM      30.00F HX  85
NORTHERLY ISL    N/A     79  68  69 SE9         N/A  HX  81
$$

WIZ051-052-058>065-066-070>072-202200-
SOUTHEAST WISCONSIN

CITY           SKY/WX    TMP DP  RH WIND       PRES   REMARKS
MILWAUKEE      CLOUDY    82  69  64 S7        30.01R HX  85
KENOSHA*       CLOUDY    81  67  62 SE8       30.02S HX  83
RACINE*        CLOUDY    79  66  64 S10       30.03S HX  81
WAUKESHA       MOSUNNY   77  66  69 SW7       30.03R
$$

INZ001>003-010>013-019-020-202200-
NORTHWEST INDIANA

CITY           SKY/WX    TMP DP  RH WIND       PRES   REMARKS
GARY*          CLOUDY    86  63  45 S7        30.03S HX  87
MICHIGAN CITY* NOT AVBL
RENSSELAER*    NOT AVBL
VALPARAISO     CLOUDY    85  68  56 SW5       30.04S HX  88
$$

LMZ740>746-202200-
SOUTHERN LAKE MICHIGAN

STATION/POSITION TIME  SKY/WX   TEMP WIND        PRES    VSBY
                                AIR  DIR/SP/G
                 (UTC)          (F)  (DEG/KT/KT) (MB)    (MI)
HARRISON CRIB    2040            79  120/ 15/ 16   N/A
BURNHAM HARBOR   NOT AVBL
CALUMET HARBOR   2030            84  200/ 10/ 14 1015.8R
BURNS HARBOR     2040            84  190/  9/ 12 1016.9S
MICHIGAN CITY    2040            81   50/  2/  4   N/A
$$

ABBREVIATIONS USED IN REMARKS
   TC - TEMPERATURE IN CELSIUS
  WCI - WIND CHILL INDEX
   HX - HEAT INDEX
  VSB - VISIBILITY
$$




USA.gov is the U.S. government's official web portal to all federal, state and local government web resources and services.